Location: *
(46.3500°N, 10.9000°E)
Time: 02:48:45
(UTC+00:00)

Envisat - Visible Passes

Search period start: 21 February 2024 00:00
Search period end: 02 March 2024 00:00
Orbit: 762 x 764 km, 98.3° (Epoch: 20 February)

Date Brightness Start Highest point End Pass type
(mag) Time Alt. Az. Time Alt. Az. Time Alt. Az.
21 Feb 5.0 02:42:21 10° NNE 02:44:06 22° NNE 02:44:06 22° NNE visible
21 Feb 4.8 04:22:34 10° NNW 04:24:16 15° NW 04:24:16 15° NW visible
22 Feb 5.6 02:05:24 10° NNE 02:06:30 16° NE 02:06:30 16° NE visible
22 Feb 4.5 03:44:24 10° N 03:46:40 23° NNW 03:46:40 23° NNW visible
23 Feb 4.5 03:06:47 10° N 03:09:04 27° N 03:09:04 27° N visible
23 Feb 5.0 04:48:23 10° NW 04:49:15 11° NW 04:49:15 11° NW visible
24 Feb 5.0 02:29:31 10° NNE 02:31:29 23° NNE 02:31:29 23° NNE visible
24 Feb 4.6 04:09:18 10° NNW 04:11:39 19° NW 04:11:39 19° NW visible
25 Feb 5.7 01:52:45 10° NE 01:53:53 15° NE 01:53:53 15° NE visible
25 Feb 4.3 03:31:22 10° N 03:34:03 28° NNW 03:34:03 28° NNW visible
26 Feb 4.4 02:53:52 10° NNE 02:56:28 31° NNE 02:56:28 31° NNE visible
26 Feb 4.8 04:34:35 10° NNW 04:36:37 14° NW 04:36:37 14° NW visible
27 Feb 5.1 02:16:44 10° NNE 02:18:52 23° NE 02:18:52 23° NE visible
27 Feb 4.3 03:56:07 10° N 03:59:02 24° NW 03:59:02 24° NW visible
28 Feb 5.7 01:40:13 10° NE 01:41:16 14° NE 01:41:16 14° NE visible
28 Feb 4.0 03:18:22 10° N 03:21:26 35° NNW 03:21:26 35° NNW visible
29 Feb 4.4 02:40:59 10° NNE 02:43:51 34° NNE 02:43:51 34° NNE visible
29 Feb 4.6 04:21:09 10° NNW 04:24:01 18° NW 04:24:01 18° NW visible
01 Mar 5.1 02:04:01 10° NNE 02:06:15 23° NE 02:06:15 23° NE visible
01 Mar 4.0 03:43:00 10° N 03:46:25 31° NW 03:46:25 31° NW visible
